Temp
-12 -11 -12 -11 -11 -11 -11 -11 -11 -11 -11 -11 -10 -10 -10 -10 -10 -10 -10 -10 -9 -9 -9 -9 -9 -9 -10 -9 -9 -9 -9 -9 -9
-12 -12 -12 -12 -11 -11 -11 -12 -11 -11 -11 -11 -11 -11 -10 -10 -10 -10 -10 -10 -10 -10 -10 -9 -10 -10 -10 -9 -9 -9 -9 -9 -9
-13 -13 -12 -12 -12 -11 -12 -11 -12 -12 -11 -11 -11 -11 -10 -10 -11 -11 -11 -10 -10 -10 -10 -10 -10 -10 -10 -9 -9 -10 -10 -9 -9
-13 -12 -13 -12 -12 -11 -12 -12 -12 -11 -12 -12 -12 -11 -11 -11 -11 -11 -11 -10 -10 -10 -10 -11 -11 -10 -10 -10 -10 -10 -10 -10 -9
-14 -14 -14 -13 -12 -12 -12 -13 -13 -12 -12 -12 -12 -12 -11 -11 -11 -11 -11 -10 -10 -10 -10 -10 -10 -11 -11 -10 -10 -10 -10 -10 -10
-14 -14 -14 -13 -13 -13 -12 -13 -13 -13 -12 -12 -12 -13 -12 -11 -11 -11 -11 -10 -10 -10 -10 -10 -10 -10 -10 -10 -10 -10 -10 -10 -10
-14 -14 -14 -14 -13 -13 -13 -13 -13 -13 -13 -13 -13 -12 -13 -12 -11 -11 -11 -11 -10 -11 -10 -10 -10 -10 -10 -10 -10 -10 -10 -10 -10
-14 -14 -14 -14 -13 -13 -13 -13 -13 -13 -13 -13 -14 -13 -13 -12 -12 -12 -11 -11 -11 -11 -10 -10 -10 -10 -10 -10 -10 -10 -11 -11 -11
-14 -14 -14 -14 -14 -13 -13 -13 -13 -13 -13 -13 -13 -13 -12 -13 -13 -12 -12 -12 -11 -11 -11 -11 -11 -10 -10 -10 -10 -10 -11 -11 -11
-14 -14 -14 -14 -14 -14 -13 -13 -12 -12 -14 -14 -13 -13 -12 -12 -12 -12 -12 -12 -11 -11 -11 -11 -11 -11 -10 -11 -10 -10 -10 -11 -11
-14 -14 -14 -14 -14 -14 -14 -12 -14 -14 -14 -14 -14 -13 -12 -12 -12 -12 -12 -12 -12 -12 -12 -11 -11 -11 -11 -11 -11 -11 -11 -11 -11
-14 -14 -14 -14 -14 -14 -14 -14 -14 -14 -14 -14 -14 -14 -13 -13 -12 -13 -13 -13 -12 -12 -12 -12 -12 -12 -11 -11 -11 -11 -11 -11 -11
-15 -14 -14 -14 -14 -14 -14 -14 -14 -14 -14 -14 -14 -13 -13 -13 -13 -13 -13 -13 -13 -13 -12 -12 -12 -12 -12 -12 -12 -11 -11 -11 -11
-15 -15 -14 -14 -14 -14 -15 -14 -14 -14 -14 -14 -14 -14 -14 -14 -13 -13 -14 -14 -13 -13 -12 -13 -12 -12 -13 -12 -12 -12 -12 -11 -11
-15 -15 -15 -14 -14 -14 -14 -14 -14 -14 -14 -14 -14 -14 -14 -14 -14 -14 -14 -14 -13 -14 -13 -13 -13 -13 -13 -13 -12 -13 -12 -12 -12
-16 -16 -15 -15 -15 -15 -15 -15 -15 -14 -14 -14 -14 -14 -14 -14 -14 -14 -14 -13 -14 -14 -14 -13 -13 -13 -13 -13 -13 -13 -13 -13 -13
-16 -16 -16 -16 -16 -16 -15 -15 -15 -15 -15 -14 -14 -14 -14 -14 -14 -14 -14 -14 -14 -14 -14 -14 -14 -14 -13 -13 -13 -13 -13 -13 -13
-16 -16 -16 -16 -16 -16 -16 -16 -16 -16 -16 -16 -15 -15 -14 -14 -15 -15 -14 -15 -14 -14 -14 -14 -14 -14 -13 -13 -13 -13 -13 -13 -13
-17 -17 -17 -17 -17 -17 -17 -17 -17 -16 -16 -16 -15 -15 -15 -15 -14 -15 -15 -15 -15 -15 -14 -15 -14 -14 -14 -13 -13 -13 -13 -13 -13
-17 -17 -17 -17 -17 -17 -17 -17 -17 -17 -17 -17 -16 -16 -16 -15 -15 -15 -15 -16 -15 -15 -15 -15 -14 -14 -14 -13 -13 -13 -13 -13 -13
Height
5815 5816 5817 5817 5818 5820 5822 5822 5824 5826 5828 5830 5831 5833 5834 5836 5838 5841 5842 5845 5846 5848 5849 5853 5854 5855 5857 5859 5861 5863 5866 5867 5870
5808 5811 5811 5812 5813 5814 5816 5817 5819 5821 5822 5826 5826 5829 5831 5832 5834 5837 5838 5841 5843 5845 5846 5849 5852 5853 5854 5856 5859 5861 5863 5865 5868
5801 5804 5806 5806 5807 5808 5810 5811 5813 5815 5818 5820 5823 5824 5827 5828 5830 5832 5834 5836 5839 5841 5843 5845 5848 5849 5851 5853 5856 5859 5860 5863 5865
5795 5797 5799 5800 5801 5802 5803 5805 5807 5810 5811 5814 5818 5820 5822 5824 5826 5828 5829 5831 5833 5836 5838 5840 5843 5845 5846 5849 5852 5854 5856 5859 5862
5788 5789 5792 5793 5795 5795 5795 5798 5801 5804 5805 5808 5810 5814 5817 5819 5822 5823 5825 5827 5828 5831 5833 5835 5836 5839 5841 5844 5847 5849 5851 5854 5857
5780 5782 5785 5787 5788 5790 5792 5791 5793 5797 5799 5801 5803 5806 5810 5813 5815 5818 5819 5821 5823 5824 5827 5829 5832 5834 5835 5837 5841 5844 5846 5849 5852
5773 5774 5777 5781 5782 5784 5786 5787 5787 5790 5793 5796 5796 5799 5802 5805 5807 5810 5812 5815 5816 5818 5821 5824 5826 5828 5830 5832 5835 5838 5841 5843 5847
5763 5766 5769 5772 5774 5776 5779 5780 5782 5783 5785 5788 5790 5791 5795 5797 5800 5802 5804 5807 5810 5812 5814 5817 5819 5822 5824 5826 5830 5832 5835 5838 5841
5755 5757 5761 5763 5764 5767 5770 5772 5773 5774 5777 5781 5784 5784 5787 5790 5793 5797 5798 5800 5802 5805 5808 5811 5813 5815 5818 5819 5823 5826 5829 5832 5834
5746 5749 5752 5753 5755 5759 5759 5762 5761 5765 5769 5772 5775 5776 5777 5779 5784 5786 5789 5791 5795 5799 5801 5804 5807 5808 5812 5813 5817 5818 5823 5825 5827
5738 5740 5742 5744 5745 5748 5751 5751 5755 5757 5760 5762 5765 5766 5764 5767 5773 5776 5780 5783 5786 5790 5793 5796 5798 5800 5803 5806 5808 5812 5815 5817 5818
5730 5732 5733 5735 5737 5738 5740 5742 5743 5747 5749 5752 5754 5756 5757 5759 5763 5764 5768 5773 5775 5780 5783 5786 5789 5792 5795 5798 5800 5803 5806 5809 5810
5723 5725 5725 5726 5727 5728 5730 5732 5734 5736 5737 5740 5743 5745 5748 5750 5748 5749 5755 5760 5764 5768 5771 5775 5778 5782 5784 5788 5790 5793 5796 5799 5802
5715 5716 5717 5717 5717 5718 5720 5721 5723 5724 5726 5729 5730 5733 5736 5737 5739 5741 5743 5746 5753 5758 5759 5764 5767 5771 5774 5777 5780 5783 5786 5789 5792
5705 5706 5707 5707 5707 5708 5708 5709 5711 5712 5714 5716 5719 5720 5723 5725 5728 5732 5734 5737 5740 5744 5747 5751 5754 5757 5762 5765 5768 5772 5775 5779 5782
5697 5697 5696 5696 5696 5696 5695 5696 5698 5698 5700 5702 5705 5708 5710 5712 5716 5719 5721 5725 5728 5731 5733 5736 5740 5745 5750 5752 5756 5759 5762 5765 5769
5688 5686 5685 5684 5684 5684 5684 5684 5684 5684 5686 5688 5690 5694 5697 5699 5703 5706 5708 5710 5713 5718 5719 5722 5728 5731 5735 5740 5744 5748 5750 5753 5758
5677 5676 5675 5673 5671 5670 5669 5670 5670 5670 5671 5672 5675 5678 5680 5685 5687 5691 5693 5695 5697 5701 5704 5708 5712 5717 5721 5725 5730 5734 5738 5741 5744
5665 5663 5662 5661 5659 5657 5655 5654 5654 5655 5655 5656 5658 5661 5665 5668 5673 5675 5676 5678 5682 5687 5689 5695 5698 5702 5707 5711 5716 5719 5724 5728 5731
5654 5651 5649 5646 5645 5643 5641 5639 5638 5638 5639 5639 5640 5643 5646 5650 5654 5659 5661 5662 5665 5671 5676 5681 5685 5688 5692 5695 5700 5706 5709 5712 5717
Wind_Speed
26 26 23 19 25 25 24 22 22 23 22 22 21 20 19 20 20 19 17 17 18 20 21 24 20 22 21 23 24 22 19 22 21
30 29 26 29 24 27 27 24 24 26 26 24 23 22 22 21 20 20 19 19 19 20 21 25 23 23 25 25 23 22 22 23 22
29 31 28 28 32 28 31 27 27 28 29 26 25 23 24 24 23 21 21 21 20 21 22 24 27 26 27 27 25 22 24 24 23
33 28 27 25 28 27 28 31 31 28 31 29 27 27 26 26 26 24 22 22 22 23 24 25 25 27 28 28 26 26 26 26 25
34 33 30 28 35 30 29 24 31 22 24 34 31 29 30 29 28 27 25 25 23 24 24 25 27 28 29 27 29 29 29 28 27
38 36 36 32 28 25 34 28 27 26 26 30 33 34 33 33 32 31 29 29 27 27 26 25 25 26 30 30 30 32 32 31 30
42 41 38 33 32 30 32 30 32 32 31 34 36 36 37 36 37 36 33 32 32 31 30 28 27 27 28 28 29 34 34 33 32
41 42 43 39 38 36 36 34 34 36 34 33 37 38 40 40 39 40 39 36 35 34 33 31 30 30 29 29 27 32 36 35 34
39 41 42 43 42 42 36 37 33 35 34 34 35 36 43 46 43 33 42 39 38 37 35 34 33 32 30 31 30 31 34 35 35
39 42 41 43 44 46 44 40 38 26 40 37 36 36 39 40 47 52 45 45 41 38 40 38 36 35 34 33 33 34 35 36 37
35 40 43 45 46 48 45 40 42 46 45 41 42 42 42 33 34 43 56 47 46 43 42 40 39 38 38 36 36 36 37 37 39
30 34 40 44 48 48 48 50 50 51 50 50 50 48 49 41 38 42 53 53 49 48 46 46 43 41 40 42 41 40 40 40 41
32 31 34 40 45 49 51 52 52 54 53 54 56 55 54 53 52 45 44 54 62 52 49 53 50 48 45 44 44 45 44 43 43
38 37 36 36 39 44 48 52 54 56 58 57 55 56 56 53 51 51 51 45 54 61 52 49 47 54 52 50 49 47 47 47 46
36 39 42 43 44 43 44 48 51 55 59 60 61 59 59 58 56 53 56 49 50 54 56 51 56 52 53 57 54 50 51 51 50
30 35 41 46 47 47 48 47 48 53 57 58 62 63 64 61 60 60 59 60 48 50 57 50 45 51 50 45 51 59 58 54 54
31 32 37 40 45 51 54 54 53 51 53 58 59 60 64 66 65 63 64 63 62 47 47 57 56 56 47 56 59 53 56 56 55
33 34 35 39 45 47 50 54 58 59 57 56 59 61 62 63 66 67 66 66 64 62 47 49 58 60 60 50 53 49 48 53 57
38 38 39 40 41 46 53 53 56 59 60 63 63 61 63 64 65 65 71 73 66 64 72 55 54 58 60 58 59 59 54 55 56
37 39 41 45 48 49 48 56 56 57 61 62 63 63 64 64 65 65 65 68 69 68 64 57 59 57 58 65 66 60 59 60 63
Wind_Direction
258 256 253 245 246 245 243 236 233 233 232 231 225 219 214 218 218 222 219 220 216 215 215 214 211 210 212 211 208 211 214 203 196
254 257 270 248 244 245 237 238 232 232 230 230 225 224 219 218 220 220 221 222 220 218 214 212 217 217 218 219 216 215 208 205 203
244 252 254 264 245 245 234 232 234 231 230 229 227 222 224 223 224 221 225 225 223 224 223 219 219 221 222 221 218 216 212 209 209
265 250 256 256 231 232 233 234 231 233 231 227 230 228 224 226 228 227 225 225 224 224 222 224 223 223 226 224 220 218 218 216 214
252 265 262 265 239 228 222 230 238 237 233 229 224 230 229 229 232 231 228 227 226 227 226 223 222 222 227 228 224 222 222 221 220
248 253 257 251 256 258 248 225 222 234 240 237 235 223 229 229 234 234 231 229 227 228 230 228 227 228 228 229 224 225 225 225 224
246 247 250 256 256 257 251 245 227 230 238 239 239 235 223 229 230 233 234 233 230 229 229 230 228 230 234 235 228 224 227 229 228
247 244 246 245 247 251 250 245 243 238 241 245 243 243 232 227 230 232 232 232 232 234 232 230 230 230 233 236 234 227 225 229 231
247 247 246 246 243 244 243 246 239 246 237 242 245 246 246 234 229 240 233 235 234 234 237 235 234 233 233 234 233 233 229 230 232
247 249 247 246 246 242 247 232 242 234 247 241 243 245 247 249 239 230 233 236 237 235 236 235 236 235 234 237 236 234 235 235 235
250 246 247 247 244 243 238 256 246 246 245 248 248 238 250 242 246 250 233 236 238 234 238 237 234 236 235 235 238 238 238 237 239
259 253 250 247 249 249 246 242 246 247 249 243 244 247 241 243 245 242 234 228 236 236 239 241 240 238 238 236 237 238 239 240 241
262 262 257 253 251 251 251 249 247 246 246 248 247 246 248 248 245 245 234 238 237 235 234 238 239 240 240 241 239 239 238 240 241
261 262 263 261 259 255 252 252 251 249 248 248 249 248 247 248 248 255 254 252 238 230 239 239 247 245 242 243 243 242 240 240 241
265 261 261 261 261 261 259 254 252 252 250 249 249 250 250 248 246 247 248 253 251 247 240 245 236 238 239 244 241 243 243 242 242
273 268 265 262 260 259 261 261 260 255 252 252 251 250 250 251 247 246 245 241 244 248 250 243 245 243 235 237 242 245 247 244 242
286 276 271 266 263 261 259 259 259 259 257 254 251 250 251 251 251 247 247 247 244 241 239 247 244 242 244 244 246 248 246 247 246
290 287 284 276 270 266 262 259 257 257 258 258 256 253 250 249 250 250 249 251 251 244 236 248 243 241 243 247 243 237 242 246 250
295 293 288 284 281 272 267 262 261 258 257 256 255 255 254 251 248 249 249 248 248 248 250 254 247 245 243 242 241 239 244 242 243
297 296 293 290 287 285 275 268 264 259 258 257 256 254 254 252 251 249 249 251 251 249 249 246 251 243 241 244 240 239 246 242 243